Regional Weather Roundup
Issued by NWS New Orleans/Baton Rouge, LA

Home | Current Version | Previous Version | Text Only | Print | Product List | Glossary Off
Versions: 1 2 3 4 5 6 7 8 9 10 11 12 13 14 15 16 17 18 19 20 21 22 23 24 25 26 27 28 29 30 31 32 33 34 35 36 37 38 39 40 41 42 43 44 45 46 47 48 49 50

138
ASUS44 KLIX 262010
RWRLIX
NEW ORLEANS REGIONAL WEATHER ROUNDUP
NATIONAL WEATHER SERVICE NEW ORLEANS LA
200 PM CST THU FEB 26 2015

NOTE: "FAIR" INDICATES FEW OR NO CLOUDS BELOW 12,000 FEET WITH NO
      SIGNIFICANT WEATHER AND/OR OBSTRUCTIONS TO VISIBILITY.
      SKY/WX - SKY CONDITION AND SIGNIFICANT WEATHER.
      TMP - AIR TEMPERATURE.     DP    - DEWPOINT TEMPERATURE.
      RH  - RELATIVE HUMIDITY.   PRES  - PRESSURE.
      HI  - HEAT INDEX.          WCI   - WIND CHILL INDEX.

*  THESE STATIONS ARE NOT NWS OR FAA STATIONS AND ARE NOT UNDER
   NWS QUALITY CONTROL.

LAZ038-040-048-061>063-065>067-069-262100-
SOUTHEAST LOUISIANA

CITY           SKY/WX    TMP DP  RH WIND       PRES   REMARKS
N.O. AUDUBON     N/A     46  39  75 MISG        N/A
N.O. INTL ARPT PTSUNNY   44  35  70 N15       30.09S
N.O. LAKEFRONT CLOUDY    46  35  65 N16       30.10R
SLIDELL        MOSUNNY   46  35  65 N12G21    30.08S
BATON ROUGE    MOSUNNY   49  34  56 NE13      30.10F
BOOTHVILLE     CLOUDY    45  37  73 N10G17    30.07R
BELLE CHASSE   CLOUDY    46  35  65 N12G22    30.07F
BOGALUSA*        N/A     46  34  62 N9        30.11S
GALLIANO*      CLOUDY    48  38  68 MISG      30.08S
NEW ROADS*       N/A     49  34  54 N12G18    30.12S
GONZALES*      MOCLDY    48  35  59 N8G16     30.09F
HAMMOND*       MOSUNNY   48  32  53 N12       30.11F
HOUMA*         NOT AVBL
PORT FOURCHON* NOT AVBL

$$

MSZ070-080>082-262100-
SOUTHERN MISSISSIPPI

CITY           SKY/WX    TMP DP  RH WIND       PRES   REMARKS
MCCOMB         SUNNY     49  30  48 N10       30.08F
GULFPORT       CLOUDY    45  35  68 NW15      30.07R
BILOXI         CLOUDY    47  36  66 N13G20    30.06R
PASCAGOULA     CLOUDY    47  36  65 N14G22    30.05R
STENNIS ARPT*  CLOUDY    45  34  65 N12G21    30.08R

$$

COASTAL OBSERVATIONS
LAKE AND NEARSHORE STATIONS

STATION/POSITION TIME  TEMP    WIND        PRES    WAVE
                       AIR SEA DIR/SP/G            HT/PER
                 (UTC) (F)     (DEG/KT/KT) (MB)    (FT/S)
PASCAGOULA       2000   47     340/ 13/ 21 1016.7
WAVELAND YACHT   2000   43 50   20/ 12/ 16 1018.0
GRAND ISLE       2000   45 53   10/ 14/ 18 1018.2
SOUTHWEST PASS   2000   46 49   10/ 13/ 15 1018.0
NEW CANAL        2000   42     360/ 11/ 15 1019.4
SHELL BEACH      2000   44 51  350/ 15/ 17 1018.1

OFFSHORE STATIONS

STATION/POSITION TIME  TEMP    WIND        PRES    WAVE
                       AIR SEA DIR/SP/G            HT/PER
                 (UTC) (F)     (DEG/KT/KT) (MB)    (FT/S)
64 S DAUPHIN ISL 1859   47 65  350/ 12/ 16 1016.6    4/ 7

$$




USA.gov is the U.S. government's official web portal to all federal, state and local government web resources and services.